Location: Fours
(44.3167°N, 6.7000°E)
Time: 17:36:03
(UTC+00:00)

Daily predictions for brighter satellites

Satellite Brightness Start Highest point End
(mag) Time Altitude Azimuth Time Altitude Azimuth Time Altitude Azimuth
Meteor 1-4 Rocket 4.2 16:24:35 10° SE 16:26:48 16° E 16:28:59 10° NE
SMAP 3.4 16:24:04 10° SE 16:28:28 44° ENE 16:32:54 10° N
Cosmos 2369 Rocket 3.2 16:26:00 10° N 16:30:40 25° NE 16:35:19 10° ESE
Cosmos 1782 4.2 16:29:29 10° SE 16:32:16 19° E 16:35:05 10° NE
USA 281 4.4 16:29:02 10° E 16:33:32 20° NE 16:38:03 10° N
Cosmos 1933 3.8 16:30:32 10° SSE 16:34:20 41° E 16:38:11 10° NNE
Cosmos 1943 Rocket 2.6 16:31:08 10° NNW 16:36:23 40° ENE 16:41:36 10° SE
USA 267 4.2 16:31:53 10° ENE 16:37:27 31° N 16:43:03 10° NW
Cosmos 2154 Rocket 4.5 16:31:11 10° NNW 16:37:29 69° W 16:43:47 10° S
Cosmos 389 Rocket 2.4 16:34:30 10° S 16:37:54 84° W 16:41:20 10° N
Cosmos 1356 3.3 16:35:08 10° N 16:38:35 85° E 16:42:00 10° S
BREEZE-M DEB (TANK) 2.6 16:41:21 10° W 16:43:24 34° NNW 16:45:13 13° NE
H-2A R/B 3.8 16:39:41 10° S 16:43:25 51° W 16:47:14 10° NNW
NOAA 12 4.1 16:38:25 10° SSE 16:43:39 62° ENE 16:48:54 10° N
Meteor 1-25 Rocket 4.3 16:41:50 10° N 16:47:24 57° ENE 16:53:00 10° SSE
X-37B 1.4 16:47:34 10° SW 16:50:33 39° SSE 16:52:59 14° E
Landsat 5 3.9 16:47:19 10° N 16:51:46 72° WNW 16:56:16 10° SSW
YAOGAN 1 4.3 16:51:53 13° ENE 16:51:54 13° ENE 16:53:52 10° NNE
Lacrosse 5 rocket 1.5 16:49:01 10° WSW 16:52:38 53° NW 16:55:50 12° NE
Sich 1 3.5 16:49:57 10° NNW 16:54:17 66° W 16:58:34 10° S
Cosmos 2341 Rocket 4.1 16:49:18 10° N 16:55:39 89° E 17:02:01 10° S
Cosmos 1470 Rocket 4.0 16:52:19 10° N 16:56:21 37° ENE 17:00:22 10° SE
SL-8 Rocket 4.0 16:51:35 10° N 16:57:50 72° E 17:04:06 10° SSE
Cosmos 1151 Rocket 3.0 16:54:53 10° S 16:59:06 64° E 17:03:20 10° NNE
ERS-2 2.9 16:57:22 11° NE 17:00:37 32° E 17:03:55 10° SSE
Cosmos 1515 Rocket 4.1 16:58:47 10° SSE 17:02:46 35° E 17:06:46 10° NNE
FengYun 1-2 T 4.2 16:58:21 10° SSE 17:03:49 66° ENE 17:09:16 10° N
CENTAUR R/B 4.0 17:03:01 10° SE 17:05:47 14° ESE 17:06:27 13° E
Cosmos 2285 Rocket 4.0 17:00:19 10° NNW 17:06:45 86° ENE 17:13:06 10° SSE
ADEOS Rocket 4.3 16:59:39 10° N 17:07:11 56° WNW 17:14:38 10° SW
Cosmos 2297 4.0 17:02:43 10° NNW 17:08:24 72° WSW 17:14:05 10° SSE
BREEZE-M DEB (TANK) 1.7 17:05:51 10° WSW 17:08:24 65° NNW 17:09:12 30° NE
Cosmos 1606 4.1 17:04:50 10° SSW 17:08:30 40° WNW 17:12:12 10° N
COSMO-SKYMED 1 3.3 17:04:49 11° NNE 17:08:37 33° E 17:12:31 10° SSE
CSL-04 DEB 4.5 17:04:41 10° NNE 17:08:52 89° W 17:13:07 10° SSW
Cosmos 2228 Rocket 4.3 17:06:43 10° SE 17:10:10 22° E 17:11:14 20° ENE
Cosmos 44 4.1 17:06:34 10° NW 17:11:50 63° WSW 17:17:10 10° SSE
SL-16 R/B 2.6 17:06:22 10° SW 17:11:59 67° WNW 17:17:38 10° NNE
YAOGAN 6 4.4 17:11:52 10° SSW 17:15:13 35° W 17:18:34 10° NNW
ISS -2.2 17:14:51 10° NW 17:17:37 23° N 17:18:35 20° NNE
Cosmos 2181 Rocket 4.1 17:13:24 10° S 17:19:49 83° W 17:26:13 10° N
SL-23 DEB 4.0 17:19:52 10° SW 17:23:26 82° SSE 17:26:31 24° ENE
Cosmos 1500 3.9 17:20:22 10° NNE 17:23:48 31° ENE 17:27:15 10° SE
Cosmos 1328 Rocket 3.6 17:19:32 10° SSW 17:23:51 79° W 17:28:13 10° N
Cosmos 1933 Rocket 3.6 17:22:10 10° N 17:26:35 54° ENE 17:30:56 10° SSE
Cosmos 773 Rocket 4.3 17:21:39 10° SSW 17:26:54 71° WNW 17:32:13 10° NNE
Helios 1A Rocket 3.9 17:29:51 27° NE 17:29:51 27° NE 17:32:28 10° N
Cosmos 1656 Rocket 4.1 17:27:07 10° NNW 17:32:25 39° ENE 17:35:32 22° ESE
Cosmos 2263 4.3 17:27:34 10° NNW 17:33:03 50° ENE 17:38:28 10° SE
NOSS 3-2 (A) 3.8 17:30:14 10° S 17:35:19 37° ESE 17:37:25 29° ENE
PSLV R/B 4.2 17:36:23 37° ENE 17:37:14 43° E 17:41:05 10° S
OE (NEXTSAT) 4.3 17:36:12 10° WNW 17:39:38 66° N 17:40:07 56° NE
Cosmos 1939 Rocket 2.7 17:35:59 10° SSE 17:39:51 86° ENE 17:43:48 10° NNW
Okean-O 2.9 17:35:50 10° SE 17:40:00 43° ENE 17:44:13 10° N
CZ-4 R/B 2.1 17:41:04 33° NE 17:41:04 33° NE 17:43:50 10° N
Okean O Rocket 3.1 17:36:15 10° SSW 17:40:19 38° W 17:44:26 10° NNW
Meteor 2-6 Rocket 4.3 17:35:51 10° S 17:41:15 52° E 17:45:25 17° NNE
CZ-4B R/B 1.9 17:39:24 17° N 17:41:35 53° WNW 17:44:40 10° SSW
H-2A R/B 4.0 17:38:36 10° N 17:42:12 28° WNW 17:45:51 10° SW
SL-08 R/B 4.3 17:38:39 10° N 17:44:49 82° E 17:50:56 10° S
CZ-2C R/B 3.0 17:40:39 10° SSE 17:45:30 51° ENE 17:50:11 10° N
Meteor 1-11 Rocket 4.2 17:41:21 10° N 17:46:42 37° ENE 17:48:34 30° ESE
USA 215 3.3 17:43:41 29° ENE 17:47:12 61° SE 17:53:39 10° SW
Cosmos 1812 3.0 17:46:30 10° S 17:49:34 46° SE 17:49:34 46° SE
USA 238 DEB 3.8 17:47:35 10° S 17:53:48 48° ESE 17:55:54 36° ENE
USA 238 3.9 17:47:41 10° S 17:53:54 47° ESE 17:55:58 37° ENE
SAR-Lupe-4 3.5 17:54:21 50° N 17:55:13 83° WNW 17:58:48 10° SSW
SKYMED 2 3.6 17:53:27 17° N 17:56:49 77° WNW 18:01:08 10° SSW
Cosmos 923 Rocket 4.0 17:53:05 10° S 17:58:09 58° ESE 17:59:17 47° ENE
CSL-04 Rocket 4.2 18:01:09 36° NE 18:01:09 36° NE 18:04:54 10° N
Meteor 1-4 Rocket 4.3 17:58:17 10° SW 18:01:32 31° WNW 18:04:24 12° NNW
Cosmos 158 Rocket 3.8 17:57:38 10° S 18:02:32 60° ESE 18:03:00 57° E
CZ-2D R/B 3.5 18:01:45 10° S 18:05:32 67° WSW 18:09:22 10° NNW
MOS 1 Rocket 3.5 18:03:11 34° NNE 18:05:33 64° E 18:10:52 10° S
H-2A R/B 2.1 18:06:32 54° ENE 18:06:32 54° ENE 18:11:24 10° N
Cosmos 1603 3.6 18:01:45 10° SSW 18:07:23 86° WNW 18:09:58 34° NNE
Cosmos 1782 4.5 18:04:43 10° SW 18:08:19 33° WNW 18:11:57 10° N
IRS-1C Rocket 4.5 18:04:53 10° S 18:10:07 65° WSW 18:15:24 10° NNW
Cosmos 1943 3.1 18:06:10 10° SSW 18:11:50 90° WNW 18:14:01 40° NNE
Meteor 1-5 Rocket 4.2 18:07:38 10° NNW 18:13:35 86° W 18:19:18 10° S
Cosmos 2369 Rocket 2.7 18:09:31 10° NNW 18:15:06 58° WSW 18:20:36 10° S
USA 281 3.1 18:10:36 10° SSE 18:17:09 82° ENE 18:23:45 10° NNW
USA 267 3.3 18:18:31 50° ENE 18:19:41 57° NNE 18:26:04 10° NW
Cosmos 1943 Rocket 3.9 18:15:07 10° NW 18:19:59 32° WSW 18:24:52 10° SSW
Cosmos 1535 Rocket 4.5 18:14:17 10° N 18:28:38 - SSE 18:19:39 55° NE
Cosmos 2239 Rocket 4.4 18:14:16 10° N 18:20:28 89° E 18:26:41 10° S
Cosmos 1238 Rocket 4.1 18:24:01 38° S 18:24:01 38° S 18:27:09 10° S
ARGOS 4.4 18:27:20 28° N 18:27:20 28° N 18:29:52 10° N
Cosmos 1680 Rocket 3.4 18:20:08 10° SSW 18:25:01 72° SSE 18:25:01 72° SSE
NOSS 3-3 (A) 4.4 18:19:25 10° NW 18:26:58 75° NE 18:29:52 44° SE
Meteor 1-27 Rocket 4.4 18:21:37 10° S 18:25:04 38° SSE 18:25:04 38° SSE
NOSS 3-3 (C) 4.4 18:19:32 10° NW 18:27:04 74° NE 18:29:53 45° ESE
X-37B 3.1 18:23:54 10° W 18:25:15 23° W 18:25:15 23° W
YAOGAN 1 3.6 18:29:03 37° NNW 18:29:03 37° NNW 18:31:45 10° NNW
Meteor 1-10 Rocket 4.3 18:24:57 10° SSW 18:30:36 76° W 18:33:01 35° N
Lacrosse 5 rocket 3.7 18:30:15 10° NW 18:31:27 14° NW 18:31:27 14° NW
Cosmos 44 Rocket 3.9 18:38:09 10° NW 18:42:15 56° NW 18:42:15 56° NW
Cosmos 1934 Rocket 3.9 18:38:12 10° N 18:44:37 87° W 18:50:54 10° S
CENTAUR R/B 2.7 18:49:10 10° SSW 18:53:41 58° SSW 18:53:41 58° SSW
NOSS 3-2 (C) 4.0 18:54:01 10° SSW 18:57:45 46° SSW 18:57:45 46° SSW
CZ-4 R/B 4.4 19:17:05 13° WNW 19:17:05 13° WNW 19:17:54 10° NW
NOSS 3-2 (A) 4.5 19:20:31 10° WSW 19:24:51 40° WNW 19:24:51 40° WNW
USA 215 4.0 19:31:02 47° NW 19:31:02 47° NW 19:36:22 10° W
H-2A R/B 4.4 19:47:10 19° WNW 19:47:10 19° WNW 19:49:54 10° NW
